126  
ASUS43 KTOP 170008  
RWRKS  
 
WEATHER ROUNDUP FOR KANSAS  
NATIONAL WEATHER SERVICE GOODLAND KS  
600 PM CST WED JAN 16 2019  
 
NOTE: "FAIR" INDICATES FEW OR NO CLOUDS BELOW 12,000 FEET WITH NO  
SIGNIFICANT WEATHER AND/OR S TO VISIBILITY
.  
 
KSZ001>006-013>018-027>032-041>047-170100-  
NORTHWEST KANSAS  
 
CITY SKY/WX TMP DP RH WIND PRES REMARKS
 
GOODLAND CLOUDY 29 28 96 SE8 29.95S FOG  
6HR MIN TEMP: 29; 6HR MAX TEMP: 33;  
 
HAYS CLOUDY 29 29 100 E9 30.03S FOG  
HILL CITY FOG 28 27 96 E5 30.05R VSB 1/4  
6HR MIN TEMP: 27; 6HR MAX TEMP: 28;  
 
RUSSELL CLOUDY 30 30 100 NE7 30.03R FOG  
6HR MIN TEMP: 28; 6HR MAX TEMP: 30; 6HR PCP: TRACE;  
 

 
 
KSZ061>065-074>080-084>089-170100-  
SOUTHWEST KANSAS  
 
CITY SKY/WX TMP DP RH WIND PRES REMARKS
 
DODGE CITY FOG 31 29 92 NE9 29.98R VSB 1/2  
6HR MIN TEMP: 31; 6HR MAX TEMP: 32;  
 
ELKHART FOG 39 39 100 NE5 29.94R VSB 1/4  
GARDEN CITY FOG 27 27 100 NE9 29.98R VSB 3/4  
6HR MIN TEMP: 27; 6HR MAX TEMP: 30;  
 
GREAT BEND LGT SNOW 31 30 96 NE7 30.02S FOG  
LIBERAL FOG 37 36 93 NE6 29.97R VSB 3/4  
PRATT CLOUDY 34 33 95 NE9 29.98F FOG  
6HR MIN TEMP: 33; 6HR MAX TEMP: 36;  
 

 
 
KSZ066>073-081>083-090>101-170100-  
SOUTHEAST KANSAS  
 
CITY SKY/WX TMP DP RH WIND PRES REMARKS
 
CHANUTE CLOUDY 42 42 100 E7 30.04F FOG  
6HR MIN TEMP: 40; 6HR MAX TEMP: 45; 6HR PCP: TRACE;  
 
COFFEYVILLE CLOUDY 46 43 87 SE5 30.03F  
6HR MIN TEMP: 47; 6HR MAX TEMP: 50;  
 
HUTCHINSON CLOUDY 34 34 100 NE6 30.02R FOG  
6HR MIN TEMP: 33; 6HR MAX TEMP: 35;  
 
MEDICINE LODGE N/A 41 41 100 NE6 29.97S  
NEWTON LGT RAIN 34 34 100 NE8 30.03R FOG  
PARSONS CLOUDY 44 43 96 CALM 30.04F FOG  
6HR MIN TEMP: 44; 6HR MAX TEMP: 48;  
 
WICHITA INTL DRIZZLE 41 40 96 NE6 30.01R FOG  
6HR MIN TEMP: 40; 6HR MAX TEMP: 42; 6HR PCP: 0.03;  
 
WICHITA JABRA CLOUDY 38 38 100 NE6 30.02R FOG  
6HR MIN TEMP: 37; 6HR MAX TEMP: 39;  
 
WICHITA MCCONL LGT RAIN 39 39 100 NE6 30.01 FOG  
WINFIELD CLOUDY 44 44 100 CALM 30.02R FOG  
6HR MIN TEMP: 43; 6HR MAX TEMP: 45;  
 

 
 
KSZ007>012-019>026-033>040-048>060-102>105-170100-  
NORTHEAST KANSAS  
 
CITY SKY/WX TMP DP RH WIND PRES REMARKS
 
CONCORDIA FOG 30 30 100 E8 30.06S VSB 3/4  
6HR MIN TEMP: 30; 6HR MAX TEMP: 30;  
 
EMPORIA CLOUDY 32 32 100 NE9 30.05S FOG  
6HR MIN TEMP: 32; 6HR MAX TEMP: 33;  
 
LAWRENCE CLOUDY 33 31 92 E8 30.10S FOG  
6HR MIN TEMP: 33; 6HR MAX TEMP: 34;  
 
MANHATTAN CLOUDY 33 32 96 E10 30.07F FOG WCI 25  
6HR MIN TEMP: 33; 6HR MAX TEMP: 33;  
 
MARYSVILLE FOG 28 28 100 NE9 30.09S VSB 1  
OLATHE IND CLOUDY 33 33 100 NE8 30.09S FOG  
6HR MIN TEMP: 32; 6HR MAX TEMP: 33;  
 
OLATHE EXE CLOUDY 31 31 100 E7 30.09S FOG  
6HR MIN TEMP: 31; 6HR MAX TEMP: 32;  
 
SALINA CLOUDY 32 32 100 NE6 30.07R FOG  
6HR MIN TEMP: 30; 6HR MAX TEMP: 32;  
 
TOPEKA BILLARD CLOUDY 33 31 92 E8 30.09F FOG  
6HR MIN TEMP: 33; 6HR MAX TEMP: 34;  
 
TOPEKA FORBES CLOUDY 33 31 92 NE7 30.07F FOG  
6HR MIN TEMP: 32; 6HR MAX TEMP: 33;  
 

 
 
 
CLICK HERE TO GO TO PREVIOUS BULLETINS.

The Nexlab KS Page Main Text Page